Regional Weather Roundup
Issued by NWS

Home | Current Version | Previous Version | Graphics & Text | Print | Product List | Glossary On
Versions: 1 2 3 4 5 6 7 8 9 10 11 12 13 14 15 16 17 18 19 20 21 22 23 24 25 26 27 28 29 30 31 32 33 34 35 36 37 38 39 40 41 42 43 44 45 46 47 48 49 50
000
ASUS45 KABQ 162210
RWRNM
WEATHER ROUNDUP FOR NEW MEXICO
NATIONAL WEATHER SERVICE ALBUQUERQUE NM
400 PM MDT TUE SEP 16 2014

NOTE: "FAIR" MEANS FEW OR NO CLOUDS BELOW 12,000 FEET AGL WITH NO
       SIGNIFICANT WEATHER OR OBSTRUCTIONS TO VISION.

      THIS PRODUCT IS RELEASED AS TWO VERSIONS.  ONE VERSION NEAR
      THE TOP OF THE HOUR CONTAINING PRELIMINARY DATA FROM ALBUQUERQUE
      AND OTHER STATIONS.  A FINAL VERSION WITH ADDITIONAL DATA IS
      ISSUED ABOUT 10 MINUTES AFTER THE HOUR.

NMZ501-503-504-510>518-162300-
NORTHWEST PLATEAU/NORTHCENTRAL MOUNTAINS

CITY           SKY/WX    TMP DP  RH WIND       PRES   REMARKS
FARMINGTON     SUNNY     84  44  24 W6        30.13F
LOS ALAMOS     PTSUNNY   71  50  48 S8        30.29F
SANTA FE       PTSUNNY   76  49  38 W10G17    30.24F
ANGEL FIRE     LGT RAIN  58  48  69 N8        30.39S

$$
NMZ402-403-502-505>509-162300-
WESTCENTRAL MOUNTAINS/SOUTHWEST MOUNTAINS

CITY           SKY/WX    TMP DP  RH WIND       PRES   REMARKS
GALLUP         PTSUNNY   75  48  38 CALM      30.23F
GRANTS         CLOUDY    73  48  40 SE15      30.27F
SILVER CITY    LGT RAIN  64  61  88 E12       30.23S

$$
NMZ407-409-411-412-162300-
SOUTHERN DESERTS

CITY           SKY/WX    TMP DP  RH WIND       PRES   REMARKS
LORDSBURG      CLOUDY    72  63  73 E18G24    30.11F
DEMING         LGT RAIN  66  66 100 VRB6      30.14S FOG
LAS CRUCES     CLOUDY    73  63  69 E9        30.16F
ALAMOGORDO     CLOUDY    72  64  78 NW7       30.16F
T OR C         LGT RAIN  67  63  87 CALM      30.19F

$$
NMZ519>523-162300-
CENTRAL VALLEYS/CENTRAL HIGHLANDS

CITY           SKY/WX    TMP DP  RH WIND       PRES   REMARKS
ALBUQUERQUE    CLOUDY    72  55  55 SW9       30.21F
DOUBLE EAGLE   PTSUNNY   72  54  53 S10G16    30.24F
MORIARTY ARPT  FAIR      70  53  54 S10       30.27F
CLINES CORNERS CLOUDY    67  52  58 SW9       30.30F
BELEN          FAIR      70  55  58 S14       30.22S
SOCORRO        CLOUDY    69  60  72 CALM      30.21S

$$
NMZ524>526-539-540-162300-
SOUTHCENTRAL MOUNTAINS

CITY           SKY/WX    TMP DP  RH WIND       PRES   REMARKS
RUIDOSO        HVY RAIN  57  57 100 SE7       30.34S VSB 1/2

$$
NMZ527>531-162300-
NORTHEAST HIGHLANDS/NORTHEAST PLAINS

CITY           SKY/WX    TMP DP  RH WIND       PRES   REMARKS
LAS VEGAS      CLOUDY    74  51  44 S13G20    30.26F
RATON          PTSUNNY   80  44  27 N18       30.20F
CLAYTON        SUNNY     79  56  45 S22G28    30.14F

$$
NMZ532>537-162300-
EASTCENTRAL PLAINS

CITY           SKY/WX    TMP DP  RH WIND       PRES   REMARKS
TUCUMCARI      CLOUDY    78  58  49 SW13G21   30.13F
CANNON AFB     CLOUDY    73  60  63 SW14      30.18F
CLOVIS AIRPORT   N/A     75  59  57 SW15      30.19F

$$
NMZ028-029-538-162300-
SOUTHEAST PLAINS

CITY           SKY/WX    TMP DP  RH WIND       PRES   REMARKS
ROSWELL        CLOUDY    68  66  93 CALM      30.16F
CARLSBAD       PTSUNNY   78  68  71 E3        30.12F
HOBBS          SUNNY     70  68  94 NW3       30.17F


$$


USA.gov is the U.S. government's official web portal to all federal, state and local government web resources and services.